Overview Statistics Trail Chart Weather Telemetry Raw packets
 

This is the latest recevied weather packets stored in our database for station/object KC9DRE. If no packets are shown the sender has not sent any weather packets the latest 10 day(s).

<< 25 26 27 28 29 30 31 >>
Time Temp. Humidity Pressure Rain* Wind** Luminosity Snow
1777737644 11.11° C 56% 1019.2 hPa 0 mm - 523 W/m² -
1777737342 11.11° C 56% 1019 hPa 0 mm - 289 W/m² -
1777737039 11.67° C 52% 1019.2 hPa 0 mm - 391 W/m² -
1777736735 11.67° C 57% 1019 hPa 0 mm - 706 W/m² -
1777736106 11.11° C 59% 1019.2 hPa 0 mm - 243 W/m² -
1777735803 10.56° C 61% 1019 hPa 0 mm - 233 W/m² -
1777735501 10.56° C 64% 1019.2 hPa 0 mm - 221 W/m² -
1777735198 10.56° C 60% 1019.1 hPa 0 mm - 219 W/m² -
1777734895 10.56° C 59% 1018.9 hPa 0 mm - 221 W/m² -
1777734592 10.56° C 61% 1019.1 hPa 0 mm - 217 W/m² -
1777734289 10° C 66% 1019 hPa 0 mm - 283 W/m² -
1777733985 9.44° C 66% 1019 hPa 0 mm - 215 W/m² -
1777733682 10° C 62% 1018.8 hPa 0 mm - 169 W/m² -
1777733378 10° C 63% 1019.1 hPa 0 mm - 147 W/m² -
1777733075 10° C 62% 1018.9 hPa 0 mm - 235 W/m² -
1777732771 10° C 65% 1018.9 hPa 0 mm - 197 W/m² -
1777732469 9.44° C 65% 1018.9 hPa 0 mm - 234 W/m² -
1777732166 10° C 66% 1018.8 hPa 0 mm - 183 W/m² -
1777731863 9.44° C 72% 1018.7 hPa 0 mm - 445 W/m² -
1777731560 9.44° C 67% 1018.8 hPa 0 mm - 231 W/m² -
1777731258 8.89° C 71% 1018.8 hPa 0 mm - 257 W/m² -
1777730955 8.33° C 72% 1019 hPa 0 mm - 309 W/m² -
1777730654 8.33° C 74% 1018.7 hPa 0 mm - 153 W/m² -
1777730349 8.33° C 78% 1018.8 hPa 0 mm - 152 W/m² -
1777730046 7.78° C 75% 1018.8 hPa 0 mm - 206 W/m² -

* Rain latest hour (hover to see other rain measurements)
** Current wind speed in m/s (hover to see current wind gust speed)